CDT,Max TemperatureF,Mean TemperatureF,Min TemperatureF,Max Dew PointF,MeanDew PointF,Min DewpointF,Max Humidity, Mean Humidity, Min Humidity, Max Sea Level PressureIn, Mean Sea Level PressureIn, Min Sea Level PressureIn, Max VisibilityMiles, Mean VisibilityMiles, Min VisibilityMiles, Max Wind SpeedMPH, Mean Wind SpeedMPH, Max Gust SpeedMPH,PrecipitationIn, CloudCover, Events, WindDirDegrees
2013-10-1,83,68,52,63,57,51,95,67,42,29.91,29.86,29.80,10,10,10,15,7,20,0.00,0,,141
2013-10-2,86,74,63,66,63,61,92,68,45,29.91,29.86,29.79,10,10,10,23,12,30,0.00,0,,168
2013-10-3,90,77,64,65,58,38,93,57,16,29.82,29.75,29.66,10,10,10,23,17,31,0.00,0,,192
2013-10-4,88,72,55,64,51,31,81,48,17,30.08,29.81,29.71,10,10,10,22,16,30,0.00,0,,232
2013-10-5,66,54,43,35,28,21,71,39,18,30.21,30.15,30.09,10,10,10,21,13,30,0.00,2,,337
2013-10-6,76,57,38,41,30,22,75,39,14,30.21,30.16,30.09,10,10,10,25,7,33,0.00,0,,311
2013-10-7,79,59,39,44,41,37,91,55,24,30.22,30.14,30.05,10,10,10,17,3,24,0.00,0,,188
2013-10-8,82,68,54,42,39,36,59,36,20,30.07,29.98,29.89,10,10,10,22,12,31,0.00,0,,187
2013-10-9,81,66,53,47,44,39,72,46,23,29.98,29.93,29.89,10,10,10,21,11,28,0.00,0,,160
2013-10-10,81,68,55,59,54,46,83,57,41,29.95,29.85,29.70,10,10,10,29,15,45,0.00,0,,167
2013-10-11,81,66,50,60,39,21,92,46,11,29.93,29.81,29.75,10,10,10,18,10,30,0.00,0,,234
2013-10-12,71,57,43,45,41,36,89,55,28,30.22,30.11,29.94,10,10,7,18,5,24,0.00,0,,68
2013-10-13,69,55,41,63,50,38,96,84,66,30.29,30.21,30.13,10,9,4,16,3,18,0.19,4,Rain,128
2013-10-14,76,67,58,67,64,46,96,86,58,30.13,29.96,29.80,10,9,3,21,12,33,0.01,5,Rain,185
2013-10-15,61,52,44,45,36,32,73,56,34,30.21,30.14,30.01,10,10,5,21,13,28,0.00,1,,5
2013-10-16,51,46,42,44,38,34,91,76,57,30.22,30.15,30.06,10,10,7,10,6,,0.06,5,Rain,349
2013-10-17,68,50,32,45,37,32,97,66,26,30.09,30.03,29.96,10,9,1,9,3,,0.00,1,,91
2013-10-18,54,42,30,42,36,29,98,78,46,30.21,30.09,29.95,10,9,2,22,11,30,0.00,6,Rain-Thunderstorm,49
2013-10-19,68,49,30,38,30,23,96,60,18,30.21,30.10,29.98,10,10,10,20,5,26,0.00,0,,247
2013-10-20,73,56,38,41,35,29,81,48,24,29.98,29.88,29.77,10,10,10,15,6,20,0.00,0,,245
2013-10-21,62,51,40,41,37,32,82,58,32,30.19,30.11,29.98,10,10,10,16,8,21,0.00,1,,3
2013-10-22,75,56,37,39,35,30,84,54,19,30.16,30.12,30.08,10,10,10,17,4,23,0.00,0,,312
2013-10-23,83,59,35,41,35,25,93,55,12,30.15,30.08,29.98,10,10,10,21,4,29,0.00,0,,294
2013-10-24,59,47,35,39,36,34,95,67,40,30.36,30.28,30.15,10,10,10,15,4,24,0.00,0,,98
2013-10-25,68,50,32,46,38,31,94,67,40,30.42,30.29,30.14,10,10,10,17,4,23,0.00,1,,181
2013-10-26,64,49,35,52,45,32,89,72,42,30.24,30.16,30.09,10,10,5,22,7,28,0.00,3,Rain,282
2013-10-27,76,52,28,38,30,22,96,55,16,30.22,30.06,29.91,10,10,10,18,4,28,0.00,0,,200
2013-10-28,70,54,41,64,52,39,96,80,51,29.99,29.94,29.90,10,9,3,23,8,32,0.00,4,,171
2013-10-29,66,58,50,64,52,42,92,79,67,30.02,29.95,29.88,10,9,7,25,10,33,0.00,4,,263
2013-10-30,80,68,57,66,55,32,93,67,18,29.90,29.80,29.68,10,10,4,22,13,30,0.14,2,Rain-Thunderstorm,206
2013-10-31,65,54,41,54,42,31,98,69,28,29.88,29.77,29.64,10,9,2,21,8,30,0.01,2,Rain,301